Погода в Елабуге

Россия / Хабаровский край     48°47′55″N   135°51′46″E
темп.,
°C
ветер,
м/с
пор.,
м/с
влажн.,
%
обл.,
%
осадки,
мм/ч
давл.,
гПа
погр.,
м
7 мая, пт
пт701:00+7юз33835 0.1 100135
04:00+5ссв349097 0.1 100275
07:00+4св469192 0.0 1003259
10:00+7св577425 0.0 1002405
13:00+11св676298 0.0 1001602
16:00+11св81159100 0.0 998615
19:00+8ссв101868100 0.1 996472
22:00+6ссв112071100 0.4 994533
8 мая, сб
сб801:00+5св111982100 1.1 992497
04:00+4св91685100 1.2 991441
07:00+3ссв81486100 0.0 993446
10:00+4св81279100 0.1 995477
13:00+7ссв8107086 0.0 997510
16:00+6св8127399 0.0 998520
19:00+5св8138299 0.0 998485
22:00+4св91588100 0.1 999414
9 мая, вс
вс901:00+3св91689100 0.0 998432
04:00+3св101893100 0.3 996460
07:00+3св101790100 0.2 997462
10:00+5св81383100 0.3 998381
13:00+9св91270100 0.0 998593
16:00+6св101680100 0.4 999487
19:00+4ссв101788100 0.1 1001484
22:00+4св91794100 0.1 1003551
10 мая, пн
пн1001:00+4св91693100 0.0 1004625
04:00+3св91588100 0.0 1005630
07:00+3ссв81680100 0.0 1007679
10:00+6св8126782 0.0 1008818
13:00+8св8116096 0.0 1008913
16:00+9св7105858 0.0 1009952
19:00+7св510679 0.0 1011582
22:00+5св512805 0.0 1012436
11 мая, вт
вт1101:00+4св5118624 0.0 1013438
04:00+3св4888100 0.0 1016475
07:00+4св498587 0.0 1016405
10:00+7ссв466892 0.0 1016730
13:00+9св456069 0.0 1016879
16:00+10св3357100 0.0 10151031
19:00+9всв236265 0.0 1016480
22:00+6вюв227484 0.0 101731